TimeCDT,TemperatureF,Dew PointF,Humidity,Sea Level PressureIn,VisibilityMPH,Wind Direction,Wind SpeedMPH,Gust SpeedMPH,PrecipitationIn,Events,Conditions,WindDirDegrees,DateUTC
12:53 AM,70.0,57.0,63,29.75,10.0,WNW,8.1,-,N/A,,Clear,290,2013-06-29 05:53:00
1:53 AM,69.1,57.0,65,29.75,10.0,WNW,6.9,-,N/A,,Clear,290,2013-06-29 06:53:00
2:53 AM,66.9,57.0,70,29.75,10.0,WNW,6.9,-,N/A,,Clear,300,2013-06-29 07:53:00
3:53 AM,66.0,57.0,73,29.75,10.0,WNW,8.1,-,N/A,,Partly Cloudy,290,2013-06-29 08:53:00
4:53 AM,64.9,57.0,75,29.75,10.0,WNW,6.9,-,N/A,,Clear,290,2013-06-29 09:53:00
5:53 AM,64.9,57.0,75,29.76,10.0,West,8.1,-,N/A,,Clear,280,2013-06-29 10:53:00
6:53 AM,66.0,57.0,73,29.75,10.0,West,9.2,-,N/A,,Clear,280,2013-06-29 11:53:00
7:53 AM,69.1,59.0,70,29.75,10.0,WNW,10.4,-,N/A,,Clear,290,2013-06-29 12:53:00
8:53 AM,72.0,60.1,66,29.76,10.0,WNW,10.4,17.3,N/A,,Clear,290,2013-06-29 13:53:00
9:53 AM,75.0,61.0,62,29.75,10.0,NW,13.8,21.9,N/A,,Clear,310,2013-06-29 14:53:00
10:53 AM,75.9,60.1,58,29.73,10.0,NW,16.1,25.3,N/A,,Partly Cloudy,310,2013-06-29 15:53:00
11:53 AM,78.1,59.0,52,29.73,10.0,NW,18.4,26.5,N/A,,Scattered Clouds,310,2013-06-29 16:53:00
12:53 PM,79.0,59.0,50,29.73,10.0,NW,17.3,24.2,N/A,,Scattered Clouds,310,2013-06-29 17:53:00
1:53 PM,81.0,60.1,49,29.73,10.0,NW,20.7,29.9,N/A,,Scattered Clouds,320,2013-06-29 18:53:00
2:53 PM,80.1,59.0,48,29.70,10.0,NW,13.8,-,N/A,,Scattered Clouds,310,2013-06-29 19:53:00
3:53 PM,81.0,57.9,45,29.69,10.0,WNW,11.5,21.9,N/A,,Partly Cloudy,290,2013-06-29 20:53:00
4:53 PM,79.0,57.0,47,29.69,10.0,WNW,16.1,24.2,N/A,,Mostly Cloudy,300,2013-06-29 21:53:00
5:53 PM,78.1,57.9,50,29.69,10.0,NW,16.1,20.7,N/A,,Partly Cloudy,310,2013-06-29 22:53:00
6:12 PM,66.2,60.8,83,29.76,1.8,NW,21.9,49.5,0.03,Rain-Thunderstorm,Heavy Rain,310,2013-06-29 23:12:00
6:28 PM,64.4,62.6,94,29.76,4.0,NW,11.5,-,0.12,Rain-Thunderstorm,Light Rain,320,2013-06-29 23:28:00
6:53 PM,66.0,63.0,90,29.73,10.0,NW,4.6,-,0.17,,Overcast,320,2013-06-29 23:53:00
7:53 PM,66.0,63.0,90,29.73,10.0,NNW,6.9,-,N/A,,Mostly Cloudy,330,2013-06-30 00:53:00
8:53 PM,64.9,63.0,93,29.74,10.0,WNW,6.9,-,0.01,,Scattered Clouds,300,2013-06-30 01:53:00
9:53 PM,64.0,62.1,93,29.76,10.0,NW,9.2,-,N/A,,Mostly Cloudy,320,2013-06-30 02:53:00
10:53 PM,63.0,61.0,93,29.76,10.0,NW,8.1,-,N/A,,Clear,310,2013-06-30 03:53:00
11:53 PM,62.1,60.1,93,29.77,10.0,NNW,8.1,-,N/A,,Partly Cloudy,330,2013-06-30 04:53:00